Starlink 1826

operational
NORAD ID: 46723 Int'l Des: 2020-073 Owner: SPXS Country: US Constellation: starlink
LEOCIRCULAR

About Starlink 1826

Description loading...

Live Position

Loading 3D Globe...

Upcoming Passes

Altitude History

Altitude vs Time

uPlot chart will show altitude changes over time

Two-Line Element Set

1 46723U 20073BF 26061.00002315 .00117541 00000-0 15427-2 0 9990
2 46723 53.0480 217.8613 0008529 171.0845 179.7002 15.57645006 5934
Epoch: Mar 2, 2026 • Age: 34 hours

Current Status

Altitude 399.1 km
Velocity 7.68 km/s
Sub-Earth Point 52.95°N, 7.33°W
Launch Date Oct 18, 2020
Age 5.3 years
Type internet

Technical Details

Classification Payload
Mass 260.00 kg
Dry Mass 248.00 kg
Total Mass 260.00 kg
Length 0.20 m
Diameter 2.80 m
Span 9.00 m
Shape Box + pan
Manufacturer SPXS
Bus Type Starlink
Phase Status In Orbit
Owner/State SPXS/US

Large Constellations

Loading constellations...